Time,TemperatureF,DewpointF,PressureIn,WindDirection,WindDirectionDegrees,WindSpeedMPH,WindSpeedGustMPH,Humidity,HourlyPrecipIn,Conditions,Clouds,dailyrainin,SoftwareType,DateUTC
2013-05-26 00:01:00,56.5,0.0,30.04,West,269,4.0,18.0,0,0.00,,,0.00,Weather View 32 v70,2013-05-26 07:01:00,
2013-05-26 00:06:00,56.2,0.0,30.04,SW,228,6.0,18.0,0,0.00,,,0.00,Weather View 32 v70,2013-05-26 07:06:00,
2013-05-26 00:11:00,56.1,0.0,30.04,SW,222,6.0,18.0,0,0.00,,,0.00,Weather View 32 v70,2013-05-26 07:11:00,
2013-05-26 00:16:00,56.7,0.0,30.04,SW,215,5.0,18.0,0,0.00,,,0.00,Weather View 32 v70,2013-05-26 07:16:00,
2013-05-26 00:21:00,56.2,0.0,30.05,WSW,243,7.0,18.0,0,0.00,,,0.00,Weather View 32 v70,2013-05-26 07:21:00,
2013-05-26 00:26:00,56.4,0.0,30.05,SW,229,2.0,18.0,0,0.00,,,0.00,Weather View 32 v70,2013-05-26 07:26:00,
2013-05-26 00:31:00,55.6,0.0,30.05,SW,226,4.0,18.0,0,0.00,,,0.00,Weather View 32 v70,2013-05-26 07:31:00,
2013-05-26 00:36:00,55.4,0.0,30.05,SW,219,5.0,18.0,0,0.00,,,0.00,Weather View 32 v70,2013-05-26 07:36:00,
2013-05-26 00:41:00,55.6,0.0,30.05,SW,222,3.0,18.0,0,0.00,,,0.00,Weather View 32 v70,2013-05-26 07:41:00,
2013-05-26 00:46:00,55.1,0.0,30.05,SSW,207,4.0,18.0,0,0.00,,,0.00,Weather View 32 v70,2013-05-26 07:46:00,
2013-05-26 00:51:00,55.7,0.0,30.05,SW,231,2.0,18.0,0,0.00,,,0.00,Weather View 32 v70,2013-05-26 07:51:00,
2013-05-26 00:56:00,56.0,0.0,30.05,SW,217,5.0,18.0,0,0.00,,,0.00,Weather View 32 v70,2013-05-26 07:56:00,
2013-05-26 01:01:00,55.5,0.0,30.05,SSW,212,4.0,14.0,0,0.00,,,0.00,Weather View 32 v70,2013-05-26 08:01:00,
2013-05-26 01:06:00,55.1,0.0,30.05,SSW,194,4.0,14.0,0,0.00,,,0.00,Weather View 32 v70,2013-05-26 08:06:00,
2013-05-26 01:11:00,54.9,0.0,30.06,West,276,2.0,14.0,0,0.00,,,0.00,Weather View 32 v70,2013-05-26 08:11:00,
2013-05-26 01:16:00,54.9,0.0,30.06,SSW,201,1.0,14.0,0,0.00,,,0.00,Weather View 32 v70,2013-05-26 08:16:00,
2013-05-26 01:21:00,55.1,0.0,30.06,SSW,200,0.0,14.0,0,0.00,,,0.00,Weather View 32 v70,2013-05-26 08:21:00,
2013-05-26 01:26:00,55.2,0.0,30.06,WSW,240,0.0,14.0,0,0.00,,,0.00,Weather View 32 v70,2013-05-26 08:26:00,
2013-05-26 01:31:00,55.1,0.0,30.06,SW,215,0.0,14.0,0,0.00,,,0.00,Weather View 32 v70,2013-05-26 08:31:00,
2013-05-26 01:36:00,55.5,0.0,30.06,WSW,257,2.0,10.0,0,0.00,,,0.00,Weather View 32 v70,2013-05-26 08:36:00,
2013-05-26 01:41:00,55.5,0.0,30.06,WSW,246,3.0,10.0,0,0.00,,,0.00,Weather View 32 v70,2013-05-26 08:41:00,
2013-05-26 01:47:00,55.1,0.0,30.06,SW,221,0.0,9.0,0,0.00,,,0.00,Weather View 32 v70,2013-05-26 08:47:00,
2013-05-26 01:52:00,55.3,0.0,30.06,SSW,201,3.0,10.0,0,0.00,,,0.00,Weather View 32 v70,2013-05-26 08:52:00,
2013-05-26 01:57:00,55.6,0.0,30.06,SW,226,5.0,10.0,0,0.00,,,0.00,Weather View 32 v70,2013-05-26 08:57:00,
2013-05-26 02:02:00,55.1,0.0,30.06,SSW,211,1.0,10.0,0,0.00,,,0.00,Weather View 32 v70,2013-05-26 09:02:00,
2013-05-26 02:07:00,54.5,0.0,30.06,WSW,248,3.0,10.0,0,0.00,,,0.00,Weather View 32 v70,2013-05-26 09:07:00,
2013-05-26 02:12:00,54.7,0.0,30.06,SW,226,3.0,10.0,0,0.00,,,0.00,Weather View 32 v70,2013-05-26 09:12:00,
2013-05-26 02:17:00,54.5,0.0,30.06,SW,221,0.0,10.0,0,0.00,,,0.00,Weather View 32 v70,2013-05-26 09:17:00,
2013-05-26 02:22:00,54.2,0.0,30.06,SW,228,5.0,10.0,0,0.00,,,0.00,Weather View 32 v70,2013-05-26 09:22:00,
2013-05-26 02:27:00,54.5,0.0,30.06,West,277,1.0,10.0,0,0.00,,,0.00,Weather View 32 v70,2013-05-26 09:27:00,
2013-05-26 02:32:00,54.9,0.0,30.06,West,267,4.0,10.0,0,0.00,,,0.00,Weather View 32 v70,2013-05-26 09:32:00,
2013-05-26 02:37:00,55.5,0.0,30.06,West,259,0.0,10.0,0,0.00,,,0.00,Weather View 32 v70,2013-05-26 09:37:00,
2013-05-26 02:42:00,55.5,0.0,30.06,West,259,0.0,10.0,0,0.00,,,0.00,Weather View 32 v70,2013-05-26 09:42:00,
2013-05-26 02:47:00,55.0,0.0,30.06,West,270,3.0,10.0,0,0.00,,,0.00,Weather View 32 v70,2013-05-26 09:47:00,
2013-05-26 02:52:00,55.3,0.0,30.06,WSW,243,0.0,9.0,0,0.00,,,0.00,Weather View 32 v70,2013-05-26 09:52:00,
2013-05-26 02:57:00,55.1,0.0,30.06,West,270,3.0,9.0,0,0.00,,,0.00,Weather View 32 v70,2013-05-26 09:57:00,
2013-05-26 03:02:00,55.3,0.0,30.06,SSW,204,3.0,9.0,0,0.00,,,0.00,Weather View 32 v70,2013-05-26 10:02:00,
2013-05-26 03:07:00,54.9,0.0,30.06,SW,214,4.0,9.0,0,0.00,,,0.00,Weather View 32 v70,2013-05-26 10:07:00,
2013-05-26 03:12:00,54.7,0.0,30.07,SW,214,7.0,10.0,0,0.00,,,0.00,Weather View 32 v70,2013-05-26 10:12:00,
2013-05-26 03:17:00,54.5,0.0,30.06,WSW,255,4.0,10.0,0,0.00,,,0.00,Weather View 32 v70,2013-05-26 10:17:00,
2013-05-26 03:22:00,55.0,0.0,30.06,WNW,300,2.0,10.0,0,0.00,,,0.00,Weather View 32 v70,2013-05-26 10:22:00,
2013-05-26 03:27:00,54.5,0.0,30.07,SW,221,9.0,11.0,0,0.00,,,0.00,Weather View 32 v70,2013-05-26 10:27:00,
2013-05-26 03:32:00,54.4,0.0,30.07,South,187,0.0,11.0,0,0.00,,,0.00,Weather View 32 v70,2013-05-26 10:32:00,
2013-05-26 03:37:00,54.2,0.0,30.06,SW,235,1.0,11.0,0,0.00,,,0.00,Weather View 32 v70,2013-05-26 10:37:00,
2013-05-26 03:42:00,54.5,0.0,30.07,SSW,205,2.0,11.0,0,0.00,,,0.00,Weather View 32 v70,2013-05-26 10:42:00,
2013-05-26 03:47:00,54.5,0.0,30.07,West,263,6.0,11.0,0,0.00,,,0.00,Weather View 32 v70,2013-05-26 10:47:00,
2013-05-26 03:52:00,54.5,0.0,30.07,South,187,9.0,11.0,0,0.00,,,0.00,Weather View 32 v70,2013-05-26 10:52:00,
2013-05-26 03:57:00,54.5,0.0,30.07,SSW,204,5.0,12.0,0,0.00,,,0.00,Weather View 32 v70,2013-05-26 10:57:00,
2013-05-26 04:02:00,54.7,0.0,30.07,SSE,167,2.0,12.0,0,0.00,,,0.00,Weather View 32 v70,2013-05-26 11:02:00,
2013-05-26 04:07:00,54.6,0.0,30.07,West,274,6.0,12.0,0,0.00,,,0.00,Weather View 32 v70,2013-05-26 11:07:00,
2013-05-26 04:12:00,54.6,0.0,30.07,SSW,208,10.0,12.0,0,0.00,,,0.00,Weather View 32 v70,2013-05-26 11:12:00,
2013-05-26 04:17:00,54.5,0.0,30.07,West,271,5.0,12.0,0,0.00,,,0.00,Weather View 32 v70,2013-05-26 11:17:00,
2013-05-26 04:22:00,54.8,0.0,30.07,West,262,6.0,13.0,0,0.00,,,0.00,Weather View 32 v70,2013-05-26 11:22:00,
2013-05-26 04:27:00,54.8,0.0,30.08,SW,228,5.0,13.0,0,0.00,,,0.00,Weather View 32 v70,2013-05-26 11:27:00,
2013-05-26 04:32:00,54.5,0.0,30.08,SW,229,7.0,13.0,0,0.00,,,0.00,Weather View 32 v70,2013-05-26 11:32:00,
2013-05-26 04:37:00,54.8,0.0,30.08,WSW,243,3.0,13.0,0,0.00,,,0.00,Weather View 32 v70,2013-05-26 11:37:00,
2013-05-26 04:42:00,54.6,0.0,30.08,WSW,252,4.0,13.0,0,0.00,,,0.00,Weather View 32 v70,2013-05-26 11:42:00,
2013-05-26 04:47:00,54.2,0.0,30.08,West,263,5.0,13.0,0,0.00,,,0.00,Weather View 32 v70,2013-05-26 11:47:00,
2013-05-26 04:52:00,54.7,0.0,30.07,WSW,242,5.0,15.0,0,0.00,,,0.00,Weather View 32 v70,2013-05-26 11:52:00,
2013-05-26 04:57:00,54.5,0.0,30.07,WSW,253,4.0,15.0,0,0.00,,,0.00,Weather View 32 v70,2013-05-26 11:57:00,
2013-05-26 05:02:00,54.5,0.0,30.08,SW,226,7.0,15.0,0,0.00,,,0.00,Weather View 32 v70,2013-05-26 12:02:00,
2013-05-26 05:07:00,54.5,0.0,30.07,West,266,5.0,15.0,0,0.00,,,0.00,Weather View 32 v70,2013-05-26 12:07:00,
2013-05-26 05:12:00,54.9,0.0,30.07,SW,221,5.0,15.0,0,0.00,,,0.00,Weather View 32 v70,2013-05-26 12:12:00,
2013-05-26 05:17:00,54.7,0.0,30.07,WSW,246,5.0,15.0,0,0.00,,,0.00,Weather View 32 v70,2013-05-26 12:17:00,
2013-05-26 05:22:00,55.1,0.0,30.07,WNW,287,8.0,15.0,0,0.00,,,0.00,Weather View 32 v70,2013-05-26 12:22:00,
2013-05-26 05:27:00,55.0,0.0,30.07,SW,225,4.0,15.0,0,0.00,,,0.00,Weather View 32 v70,2013-05-26 12:27:00,
2013-05-26 05:32:00,54.8,0.0,30.07,South,183,6.0,15.0,0,0.00,,,0.00,Weather View 32 v70,2013-05-26 12:32:00,
2013-05-26 05:37:00,54.9,0.0,30.07,West,263,8.0,15.0,0,0.00,,,0.00,Weather View 32 v70,2013-05-26 12:37:00,
2013-05-26 05:42:00,55.1,0.0,30.08,SW,229,8.0,15.0,0,0.00,,,0.00,Weather View 32 v70,2013-05-26 12:42:00,
2013-05-26 05:47:00,55.4,0.0,30.08,WSW,255,3.0,15.0,0,0.00,,,0.00,Weather View 32 v70,2013-05-26 12:47:00,
2013-05-26 05:52:00,55.2,0.0,30.08,SW,226,5.0,14.0,0,0.00,,,0.00,Weather View 32 v70,2013-05-26 12:52:00,
2013-05-26 05:57:00,54.9,0.0,30.08,West,259,4.0,14.0,0,0.00,,,0.00,Weather View 32 v70,2013-05-26 12:57:00,
2013-05-26 06:02:00,55.0,0.0,30.08,SW,229,6.0,14.0,0,0.00,,,0.00,Weather View 32 v70,2013-05-26 13:02:00,
2013-05-26 06:07:00,54.7,0.0,30.08,WSW,240,1.0,14.0,0,0.00,,,0.00,Weather View 32 v70,2013-05-26 13:07:00,
2013-05-26 06:12:00,55.0,0.0,30.08,WNW,300,1.0,14.0,0,0.00,,,0.00,Weather View 32 v70,2013-05-26 13:12:00,
2013-05-26 06:17:00,54.8,0.0,30.09,WNW,293,1.0,14.0,0,0.00,,,0.00,Weather View 32 v70,2013-05-26 13:17:00,
2013-05-26 06:22:00,55.0,0.0,30.09,SW,235,1.0,14.0,0,0.00,,,0.00,Weather View 32 v70,2013-05-26 13:22:00,
2013-05-26 06:27:00,55.0,0.0,30.09,West,262,1.0,14.0,0,0.00,,,0.00,Weather View 32 v70,2013-05-26 13:27:00,
2013-05-26 06:32:00,54.8,0.0,30.09,SSW,193,0.0,14.0,0,0.00,,,0.00,Weather View 32 v70,2013-05-26 13:32:00,
2013-05-26 06:37:00,55.0,0.0,30.09,SW,215,5.0,14.0,0,0.00,,,0.00,Weather View 32 v70,2013-05-26 13:37:00,
2013-05-26 06:42:00,55.8,0.0,30.09,WSW,253,3.0,14.0,0,0.00,,,0.00,Weather View 32 v70,2013-05-26 13:42:00,
2013-05-26 06:47:00,56.1,0.0,30.09,SW,228,7.0,14.0,0,0.00,,,0.00,Weather View 32 v70,2013-05-26 13:47:00,
2013-05-26 06:52:00,56.0,0.0,30.10,SW,236,3.0,14.0,0,0.00,,,0.00,Weather View 32 v70,2013-05-26 13:52:00,
2013-05-26 06:57:00,56.6,0.0,30.10,West,264,5.0,14.0,0,0.00,,,0.00,Weather View 32 v70,2013-05-26 13:57:00,
2013-05-26 07:03:00,57.0,0.0,30.10,WSW,239,2.0,10.0,0,0.00,,,0.00,Weather View 32 v70,2013-05-26 14:03:00,
2013-05-26 07:08:00,57.3,0.0,30.10,WNW,294,5.0,12.0,0,0.00,,,0.00,Weather View 32 v70,2013-05-26 14:08:00,
2013-05-26 07:13:00,57.3,0.0,30.10,WSW,248,4.0,12.0,0,0.00,,,0.00,Weather View 32 v70,2013-05-26 14:13:00,
2013-05-26 07:18:00,57.2,0.0,30.10,SW,232,5.0,12.0,0,0.00,,,0.00,Weather View 32 v70,2013-05-26 14:18:00,
2013-05-26 07:23:00,57.9,0.0,30.10,WNW,284,4.0,12.0,0,0.00,,,0.00,Weather View 32 v70,2013-05-26 14:23:00,
2013-05-26 07:28:00,58.2,0.0,30.10,SW,225,9.0,12.0,0,0.00,,,0.00,Weather View 32 v70,2013-05-26 14:28:00,
2013-05-26 07:33:00,58.8,0.0,30.10,WSW,255,3.0,12.0,0,0.00,,,0.00,Weather View 32 v70,2013-05-26 14:33:00,
2013-05-26 07:38:00,59.2,0.0,30.10,WSW,253,4.0,12.0,0,0.00,,,0.00,Weather View 32 v70,2013-05-26 14:38:00,
2013-05-26 07:43:00,59.4,0.0,30.10,WSW,250,4.0,12.0,0,0.00,,,0.00,Weather View 32 v70,2013-05-26 14:43:00,
2013-05-26 07:48:00,60.1,0.0,30.10,West,263,5.0,13.0,0,0.00,,,0.00,Weather View 32 v70,2013-05-26 14:48:00,
2013-05-26 07:53:00,60.2,0.0,30.10,WSW,249,2.0,13.0,0,0.00,,,0.00,Weather View 32 v70,2013-05-26 14:53:00,
2013-05-26 07:58:00,60.1,0.0,30.10,West,273,5.0,14.0,0,0.00,,,0.00,Weather View 32 v70,2013-05-26 14:58:00,
2013-05-26 08:03:00,60.0,0.0,30.10,WSW,255,4.0,14.0,0,0.00,,,0.00,Weather View 32 v70,2013-05-26 15:03:00,
2013-05-26 08:08:00,60.5,0.0,30.10,SSW,195,3.0,14.0,0,0.00,,,0.00,Weather View 32 v70,2013-05-26 15:08:00,
2013-05-26 08:13:00,60.4,0.0,30.10,WSW,243,7.0,14.0,0,0.00,,,0.00,Weather View 32 v70,2013-05-26 15:13:00,
2013-05-26 08:18:00,60.1,0.0,30.10,WSW,238,5.0,14.0,0,0.00,,,0.00,Weather View 32 v70,2013-05-26 15:18:00,
2013-05-26 08:23:00,61.2,0.0,30.10,WSW,243,5.0,14.0,0,0.00,,,0.00,Weather View 32 v70,2013-05-26 15:23:00,
2013-05-26 08:28:00,61.5,0.0,30.10,WNW,301,5.0,14.0,0,0.00,,,0.00,Weather View 32 v70,2013-05-26 15:28:00,
2013-05-26 08:33:00,62.3,0.0,30.11,SW,228,5.0,14.0,0,0.00,,,0.00,Weather View 32 v70,2013-05-26 15:33:00,
2013-05-26 08:38:00,62.0,0.0,30.11,West,262,4.0,14.0,0,0.00,,,0.00,Weather View 32 v70,2013-05-26 15:38:00,
2013-05-26 08:43:00,62.3,0.0,30.11,SW,224,12.0,14.0,0,0.00,,,0.00,Weather View 32 v70,2013-05-26 15:43:00,
2013-05-26 08:48:00,62.5,0.0,30.11,SSW,197,7.0,17.0,0,0.00,,,0.00,Weather View 32 v70,2013-05-26 15:48:00,
2013-05-26 08:53:00,62.7,0.0,30.11,SSW,211,11.0,17.0,0,0.00,,,0.00,Weather View 32 v70,2013-05-26 15:53:00,
2013-05-26 08:58:00,63.2,0.0,30.11,WSW,243,6.0,17.0,0,0.00,,,0.00,Weather View 32 v70,2013-05-26 15:58:00,
2013-05-26 09:03:00,62.8,0.0,30.11,West,273,4.0,17.0,0,0.00,,,0.00,Weather View 32 v70,2013-05-26 16:03:00,
2013-05-26 09:08:00,63.3,0.0,30.11,West,267,3.0,17.0,0,0.00,,,0.00,Weather View 32 v70,2013-05-26 16:08:00,
2013-05-26 09:13:00,63.8,0.0,30.11,WSW,257,6.0,17.0,0,0.00,,,0.00,Weather View 32 v70,2013-05-26 16:13:00,
2013-05-26 09:18:00,64.4,0.0,30.12,SW,219,6.0,17.0,0,0.00,,,0.00,Weather View 32 v70,2013-05-26 16:18:00,
2013-05-26 09:23:00,64.8,0.0,30.11,WSW,243,10.0,17.0,0,0.00,,,0.00,Weather View 32 v70,2013-05-26 16:23:00,
2013-05-26 09:28:00,64.3,0.0,30.11,WSW,240,9.0,17.0,0,0.00,,,0.00,Weather View 32 v70,2013-05-26 16:28:00,
2013-05-26 09:34:00,64.4,0.0,30.11,SW,236,6.0,17.0,0,0.00,,,0.00,Weather View 32 v70,2013-05-26 16:34:00,
2013-05-26 09:39:00,64.7,0.0,30.11,WSW,239,3.0,17.0,0,0.00,,,0.00,Weather View 32 v70,2013-05-26 16:39:00,
2013-05-26 09:44:00,65.0,0.0,30.11,WSW,242,6.0,17.0,0,0.00,,,0.00,Weather View 32 v70,2013-05-26 16:44:00,
2013-05-26 09:49:00,65.9,0.0,30.11,West,259,8.0,16.0,0,0.00,,,0.00,Weather View 32 v70,2013-05-26 16:49:00,
2013-05-26 09:54:00,67.0,0.0,30.11,SW,224,1.0,15.0,0,0.00,,,0.00,Weather View 32 v70,2013-05-26 16:54:00,
2013-05-26 09:59:00,67.0,0.0,30.11,SW,233,7.0,15.0,0,0.00,,,0.00,Weather View 32 v70,2013-05-26 16:59:00,
2013-05-26 10:04:00,67.3,0.0,30.11,SW,228,5.0,15.0,0,0.00,,,0.00,Weather View 32 v70,2013-05-26 17:04:00,
2013-05-26 10:09:00,68.0,0.0,30.11,WSW,245,10.0,15.0,0,0.00,,,0.00,Weather View 32 v70,2013-05-26 17:09:00,
2013-05-26 10:14:00,68.8,0.0,30.11,West,270,3.0,15.0,0,0.00,,,0.00,Weather View 32 v70,2013-05-26 17:14:00,
2013-05-26 10:19:00,68.7,0.0,30.11,WSW,250,6.0,16.0,0,0.00,,,0.00,Weather View 32 v70,2013-05-26 17:19:00,
2013-05-26 10:24:00,69.7,0.0,30.11,WNW,295,8.0,16.0,0,0.00,,,0.00,Weather View 32 v70,2013-05-26 17:24:00,
2013-05-26 10:29:00,70.6,0.0,30.11,SSW,212,11.0,16.0,0,0.00,,,0.00,Weather View 32 v70,2013-05-26 17:29:00,
2013-05-26 10:34:00,70.1,0.0,30.11,WSW,240,5.0,16.0,0,0.00,,,0.00,Weather View 32 v70,2013-05-26 17:34:00,
2013-05-26 10:39:00,70.8,0.0,30.11,SW,232,6.0,16.0,0,0.00,,,0.00,Weather View 32 v70,2013-05-26 17:39:00,
2013-05-26 10:44:00,71.1,0.0,30.11,West,263,6.0,16.0,0,0.00,,,0.00,Weather View 32 v70,2013-05-26 17:44:00,
2013-05-26 10:49:00,71.9,0.0,30.11,WNW,301,4.0,16.0,0,0.00,,,0.00,Weather View 32 v70,2013-05-26 17:49:00,
2013-05-26 10:54:00,72.0,0.0,30.11,South,179,7.0,16.0,0,0.00,,,0.00,Weather View 32 v70,2013-05-26 17:54:00,
2013-05-26 10:59:00,72.1,0.0,30.11,SW,226,5.0,16.0,0,0.00,,,0.00,Weather View 32 v70,2013-05-26 17:59:00,
2013-05-26 11:04:00,73.3,0.0,30.10,SSW,201,9.0,16.0,0,0.00,,,0.00,Weather View 32 v70,2013-05-26 18:04:00,
2013-05-26 11:09:00,73.7,0.0,30.10,West,262,6.0,16.0,0,0.00,,,0.00,Weather View 32 v70,2013-05-26 18:09:00,
2013-05-26 11:14:00,74.0,0.0,30.10,WSW,249,5.0,16.0,0,0.00,,,0.00,Weather View 32 v70,2013-05-26 18:14:00,
2013-05-26 11:19:00,73.7,0.0,30.10,SW,236,5.0,16.0,0,0.00,,,0.00,Weather View 32 v70,2013-05-26 18:19:00,
2013-05-26 11:24:00,74.7,0.0,30.10,West,276,8.0,16.0,0,0.00,,,0.00,Weather View 32 v70,2013-05-26 18:24:00,
2013-05-26 11:29:00,75.1,0.0,30.10,West,277,7.0,16.0,0,0.00,,,0.00,Weather View 32 v70,2013-05-26 18:29:00,
2013-05-26 11:34:00,75.5,0.0,30.10,West,269,5.0,16.0,0,0.00,,,0.00,Weather View 32 v70,2013-05-26 18:34:00,
2013-05-26 11:39:00,75.3,0.0,30.10,SW,233,4.0,16.0,0,0.00,,,0.00,Weather View 32 v70,2013-05-26 18:39:00,
2013-05-26 11:44:00,76.1,0.0,30.10,West,281,6.0,17.0,0,0.00,,,0.00,Weather View 32 v70,2013-05-26 18:44:00,
2013-05-26 11:49:00,75.4,0.0,30.10,WSW,257,6.0,17.0,0,0.00,,,0.00,Weather View 32 v70,2013-05-26 18:49:00,
2013-05-26 11:54:00,74.4,0.0,30.09,WSW,253,4.0,17.0,0,0.00,,,0.00,Weather View 32 v70,2013-05-26 18:54:00,
2013-05-26 11:59:00,74.6,0.0,30.09,SSW,195,9.0,17.0,0,0.00,,,0.00,Weather View 32 v70,2013-05-26 18:59:00,
2013-05-26 12:04:00,73.6,0.0,30.09,SSW,205,5.0,18.0,0,0.00,,,0.00,Weather View 32 v70,2013-05-26 19:04:00,
2013-05-26 12:09:00,75.9,0.0,30.09,WNW,297,11.0,20.0,0,0.00,,,0.00,Weather View 32 v70,2013-05-26 19:09:00,
2013-05-26 12:14:00,75.2,0.0,30.09,WSW,252,7.0,20.0,0,0.00,,,0.00,Weather View 32 v70,2013-05-26 19:14:00,
2013-05-26 12:19:00,75.7,0.0,30.09,SW,233,5.0,20.0,0,0.00,,,0.00,Weather View 32 v70,2013-05-26 19:19:00,
2013-05-26 12:24:00,75.4,0.0,30.08,WSW,242,5.0,20.0,0,0.00,,,0.00,Weather View 32 v70,2013-05-26 19:24:00,
2013-05-26 12:29:00,76.7,0.0,30.08,WSW,248,4.0,20.0,0,0.00,,,0.00,Weather View 32 v70,2013-05-26 19:29:00,
2013-05-26 12:35:00,75.9,0.0,30.08,SSW,212,6.0,22.0,0,0.00,,,0.00,Weather View 32 v70,2013-05-26 19:35:00,
2013-05-26 12:40:00,76.6,0.0,30.08,WSW,250,4.0,22.0,0,0.00,,,0.00,Weather View 32 v70,2013-05-26 19:40:00,
2013-05-26 12:45:00,76.2,0.0,30.08,SW,225,4.0,22.0,0,0.00,,,0.00,Weather View 32 v70,2013-05-26 19:45:00,
2013-05-26 12:50:00,76.7,0.0,30.08,WSW,238,7.0,22.0,0,0.00,,,0.00,Weather View 32 v70,2013-05-26 19:50:00,
2013-05-26 12:55:00,77.2,0.0,30.08,WNW,301,5.0,22.0,0,0.00,,,0.00,Weather View 32 v70,2013-05-26 19:55:00,
2013-05-26 13:00:00,76.9,0.0,30.07,SSW,212,4.0,22.0,0,0.00,,,0.00,Weather View 32 v70,2013-05-26 20:00:00,
2013-05-26 13:05:00,77.7,0.0,30.07,SW,215,12.0,22.0,0,0.00,,,0.00,Weather View 32 v70,2013-05-26 20:05:00,
2013-05-26 13:10:00,78.4,0.0,30.07,SSW,212,10.0,22.0,0,0.00,,,0.00,Weather View 32 v70,2013-05-26 20:10:00,
2013-05-26 13:15:00,77.3,0.0,30.07,SSE,163,5.0,22.0,0,0.00,,,0.00,Weather View 32 v70,2013-05-26 20:15:00,
2013-05-26 13:20:00,77.7,0.0,30.07,WSW,238,5.0,22.0,0,0.00,,,0.00,Weather View 32 v70,2013-05-26 20:20:00,
2013-05-26 13:25:00,77.3,0.0,30.07,WSW,253,7.0,22.0,0,0.00,,,0.00,Weather View 32 v70,2013-05-26 20:25:00,
2013-05-26 13:30:00,77.7,0.0,30.07,SSW,211,16.0,22.0,0,0.00,,,0.00,Weather View 32 v70,2013-05-26 20:30:00,
2013-05-26 13:35:00,77.7,0.0,30.07,SSW,201,9.0,20.0,0,0.00,,,0.00,Weather View 32 v70,2013-05-26 20:35:00,
2013-05-26 13:40:00,78.8,0.0,30.07,West,269,10.0,20.0,0,0.00,,,0.00,Weather View 32 v70,2013-05-26 20:40:00,
2013-05-26 13:45:00,80.0,0.0,30.07,WSW,238,6.0,20.0,0,0.00,,,0.00,Weather View 32 v70,2013-05-26 20:45:00,
2013-05-26 13:50:00,79.0,0.0,30.07,WSW,253,8.0,20.0,0,0.00,,,0.00,Weather View 32 v70,2013-05-26 20:50:00,
2013-05-26 13:55:00,78.9,0.0,30.07,WSW,242,12.0,20.0,0,0.00,,,0.00,Weather View 32 v70,2013-05-26 20:55:00,
2013-05-26 14:00:00,78.5,0.0,30.06,WSW,249,7.0,20.0,0,0.00,,,0.00,Weather View 32 v70,2013-05-26 21:00:00,
2013-05-26 14:05:00,78.1,0.0,30.06,South,190,9.0,20.0,0,0.00,,,0.00,Weather View 32 v70,2013-05-26 21:05:00,
2013-05-26 14:10:00,77.7,0.0,30.06,WSW,240,8.0,23.0,0,0.00,,,0.00,Weather View 32 v70,2013-05-26 21:10:00,
2013-05-26 14:15:00,78.9,0.0,30.06,SSW,212,10.0,23.0,0,0.00,,,0.00,Weather View 32 v70,2013-05-26 21:15:00,
2013-05-26 14:20:00,77.9,0.0,30.06,WSW,248,10.0,23.0,0,0.00,,,0.00,Weather View 32 v70,2013-05-26 21:20:00,
2013-05-26 14:25:00,77.4,0.0,30.06,West,271,10.0,23.0,0,0.00,,,0.00,Weather View 32 v70,2013-05-26 21:25:00,
2013-05-26 14:30:00,77.9,0.0,30.06,SW,218,4.0,23.0,0,0.00,,,0.00,Weather View 32 v70,2013-05-26 21:30:00,
2013-05-26 14:35:00,77.9,0.0,30.06,WNW,283,5.0,23.0,0,0.00,,,0.00,Weather View 32 v70,2013-05-26 21:35:00,
2013-05-26 14:40:00,78.7,0.0,30.06,WSW,249,6.0,23.0,0,0.00,,,0.00,Weather View 32 v70,2013-05-26 21:40:00,
2013-05-26 14:45:00,78.9,0.0,30.06,SW,233,9.0,23.0,0,0.00,,,0.00,Weather View 32 v70,2013-05-26 21:45:00,
2013-05-26 14:50:00,79.0,0.0,30.06,SSW,211,4.0,23.0,0,0.00,,,0.00,Weather View 32 v70,2013-05-26 21:50:00,
2013-05-26 14:55:00,78.5,0.0,30.06,WSW,246,12.0,23.0,0,0.00,,,0.00,Weather View 32 v70,2013-05-26 21:55:00,
2013-05-26 15:00:00,78.5,0.0,30.06,SW,236,6.0,23.0,0,0.00,,,0.00,Weather View 32 v70,2013-05-26 22:00:00,
2013-05-26 15:06:00,78.3,0.0,30.06,South,174,8.0,23.0,0,0.00,,,0.00,Weather View 32 v70,2013-05-26 22:06:00,
2013-05-26 15:11:00,78.4,0.0,30.05,SW,219,9.0,23.0,0,0.00,,,0.00,Weather View 32 v70,2013-05-26 22:11:00,
2013-05-26 15:16:00,78.4,0.0,30.05,South,184,9.0,22.0,0,0.00,,,0.00,Weather View 32 v70,2013-05-26 22:16:00,
2013-05-26 15:21:00,78.4,0.0,30.05,SW,217,9.0,22.0,0,0.00,,,0.00,Weather View 32 v70,2013-05-26 22:21:00,
2013-05-26 15:26:00,78.2,0.0,30.05,WSW,239,4.0,22.0,0,0.00,,,0.00,Weather View 32 v70,2013-05-26 22:26:00,
2013-05-26 15:31:00,78.9,0.0,30.05,SSW,200,6.0,22.0,0,0.00,,,0.00,Weather View 32 v70,2013-05-26 22:31:00,
2013-05-26 15:36:00,78.3,0.0,30.05,West,281,11.0,20.0,0,0.00,,,0.00,Weather View 32 v70,2013-05-26 22:36:00,
2013-05-26 15:41:00,78.3,0.0,30.05,WSW,239,16.0,25.0,0,0.00,,,0.00,Weather View 32 v70,2013-05-26 22:41:00,
2013-05-26 15:46:00,78.7,0.0,30.05,West,278,7.0,25.0,0,0.00,,,0.00,Weather View 32 v70,2013-05-26 22:46:00,
2013-05-26 15:51:00,78.7,0.0,30.04,SW,235,9.0,25.0,0,0.00,,,0.00,Weather View 32 v70,2013-05-26 22:51:00,
2013-05-26 15:56:00,78.4,0.0,30.04,West,278,15.0,25.0,0,0.00,,,0.00,Weather View 32 v70,2013-05-26 22:56:00,
2013-05-26 16:01:00,77.8,0.0,30.04,SW,214,10.0,25.0,0,0.00,,,0.00,Weather View 32 v70,2013-05-26 23:01:00,
2013-05-26 16:06:00,77.9,0.0,30.04,WSW,242,8.0,25.0,0,0.00,,,0.00,Weather View 32 v70,2013-05-26 23:06:00,
2013-05-26 16:11:00,77.4,0.0,30.04,SW,228,5.0,25.0,0,0.00,,,0.00,Weather View 32 v70,2013-05-26 23:11:00,
2013-05-26 16:16:00,77.7,0.0,30.04,SW,235,9.0,25.0,0,0.00,,,0.00,Weather View 32 v70,2013-05-26 23:16:00,
2013-05-26 16:21:00,77.3,0.0,30.04,WSW,250,11.0,25.0,0,0.00,,,0.00,Weather View 32 v70,2013-05-26 23:21:00,
2013-05-26 16:26:00,76.6,0.0,30.04,SW,235,11.0,25.0,0,0.00,,,0.00,Weather View 32 v70,2013-05-26 23:26:00,
2013-05-26 16:31:00,76.3,0.0,30.04,WSW,248,18.0,25.0,0,0.00,,,0.00,Weather View 32 v70,2013-05-26 23:31:00,
2013-05-26 16:36:00,77.1,0.0,30.04,SW,226,13.0,25.0,0,0.00,,,0.00,Weather View 32 v70,2013-05-26 23:36:00,
2013-05-26 16:41:00,75.9,0.0,30.04,West,264,6.0,22.0,0,0.00,,,0.00,Weather View 32 v70,2013-05-26 23:41:00,
2013-05-26 16:46:00,76.2,0.0,30.04,West,266,10.0,22.0,0,0.00,,,0.00,Weather View 32 v70,2013-05-26 23:46:00,
2013-05-26 16:51:00,76.0,0.0,30.03,WNW,301,7.0,22.0,0,0.00,,,0.00,Weather View 32 v70,2013-05-26 23:51:00,
2013-05-26 16:56:00,76.2,0.0,30.03,SW,221,4.0,22.0,0,0.00,,,0.00,Weather View 32 v70,2013-05-26 23:56:00,
2013-05-26 17:01:00,76.4,0.0,30.03,WSW,245,5.0,22.0,0,0.00,,,0.00,Weather View 32 v70,2013-05-27 00:01:00,
2013-05-26 17:06:00,75.9,0.0,30.03,WSW,242,10.0,22.0,0,0.00,,,0.00,Weather View 32 v70,2013-05-27 00:06:00,
2013-05-26 17:11:00,75.5,0.0,30.03,West,266,9.0,22.0,0,0.00,,,0.00,Weather View 32 v70,2013-05-27 00:11:00,
2013-05-26 17:16:00,75.1,0.0,30.03,WSW,252,14.0,22.0,0,0.00,,,0.00,Weather View 32 v70,2013-05-27 00:16:00,
2013-05-26 17:21:00,74.9,0.0,30.03,SW,235,10.0,22.0,0,0.00,,,0.00,Weather View 32 v70,2013-05-27 00:21:00,
2013-05-26 17:26:00,75.0,0.0,30.03,WSW,253,5.0,22.0,0,0.00,,,0.00,Weather View 32 v70,2013-05-27 00:26:00,
2013-05-26 17:31:00,75.2,0.0,30.03,WSW,238,3.0,22.0,0,0.00,,,0.00,Weather View 32 v70,2013-05-27 00:31:00,
2013-05-26 17:37:00,74.5,0.0,30.03,WNW,290,8.0,21.0,0,0.00,,,0.00,Weather View 32 v70,2013-05-27 00:37:00,
2013-05-26 17:42:00,74.8,0.0,30.03,WSW,246,10.0,21.0,0,0.00,,,0.00,Weather View 32 v70,2013-05-27 00:42:00,
2013-05-26 17:47:00,74.5,0.0,30.03,West,276,9.0,21.0,0,0.00,,,0.00,Weather View 32 v70,2013-05-27 00:47:00,
2013-05-26 17:52:00,74.0,0.0,30.03,West,281,9.0,19.0,0,0.00,,,0.00,Weather View 32 v70,2013-05-27 00:52:00,
2013-05-26 17:57:00,74.5,0.0,30.03,WNW,297,7.0,19.0,0,0.00,,,0.00,Weather View 32 v70,2013-05-27 00:57:00,
2013-05-26 18:02:00,74.5,0.0,30.03,West,269,10.0,19.0,0,0.00,,,0.00,Weather View 32 v70,2013-05-27 01:02:00,
2013-05-26 18:07:00,74.2,0.0,30.03,WSW,252,5.0,19.0,0,0.00,,,0.00,Weather View 32 v70,2013-05-27 01:07:00,
2013-05-26 18:12:00,73.6,0.0,30.03,SSW,203,9.0,19.0,0,0.00,,,0.00,Weather View 32 v70,2013-05-27 01:12:00,
2013-05-26 18:17:00,73.7,0.0,30.03,SW,219,8.0,17.0,0,0.00,,,0.00,Weather View 32 v70,2013-05-27 01:17:00,
2013-05-26 18:22:00,73.9,0.0,30.03,WSW,253,5.0,17.0,0,0.00,,,0.00,Weather View 32 v70,2013-05-27 01:22:00,
2013-05-26 18:27:00,73.0,0.0,30.03,West,267,7.0,17.0,0,0.00,,,0.00,Weather View 32 v70,2013-05-27 01:27:00,
2013-05-26 18:32:00,72.7,0.0,30.03,West,271,6.0,17.0,0,0.00,,,0.00,Weather View 32 v70,2013-05-27 01:32:00,
2013-05-26 18:37:00,72.0,0.0,30.03,WSW,257,5.0,17.0,0,0.00,,,0.00,Weather View 32 v70,2013-05-27 01:37:00,
2013-05-26 18:42:00,70.9,0.0,30.03,SSW,211,6.0,17.0,0,0.00,,,0.00,Weather View 32 v70,2013-05-27 01:42:00,
2013-05-26 18:47:00,69.9,0.0,30.03,WSW,248,3.0,16.0,0,0.00,,,0.00,Weather View 32 v70,2013-05-27 01:47:00,
2013-05-26 18:52:00,69.8,0.0,30.03,SW,232,7.0,16.0,0,0.00,,,0.00,Weather View 32 v70,2013-05-27 01:52:00,
2013-05-26 18:57:00,69.6,0.0,30.03,WSW,250,7.0,16.0,0,0.00,,,0.00,Weather View 32 v70,2013-05-27 01:57:00,
2013-05-26 19:02:00,68.9,0.0,30.03,SW,229,10.0,16.0,0,0.00,,,0.00,Weather View 32 v70,2013-05-27 02:02:00,
2013-05-26 19:07:00,68.0,0.0,30.03,SW,219,5.0,16.0,0,0.00,,,0.00,Weather View 32 v70,2013-05-27 02:07:00,
2013-05-26 19:12:00,68.5,0.0,30.03,SW,224,9.0,16.0,0,0.00,,,0.00,Weather View 32 v70,2013-05-27 02:12:00,
2013-05-26 19:17:00,68.4,0.0,30.03,SW,226,8.0,17.0,0,0.00,,,0.00,Weather View 32 v70,2013-05-27 02:17:00,
2013-05-26 19:22:00,67.8,0.0,30.04,SW,214,4.0,17.0,0,0.00,,,0.00,Weather View 32 v70,2013-05-27 02:22:00,
2013-05-26 19:27:00,68.0,0.0,30.04,SW,221,7.0,17.0,0,0.00,,,0.00,Weather View 32 v70,2013-05-27 02:27:00,
2013-05-26 19:32:00,66.1,0.0,30.04,WSW,249,5.0,17.0,0,0.00,,,0.00,Weather View 32 v70,2013-05-27 02:32:00,
2013-05-26 19:37:00,66.3,0.0,30.04,South,191,4.0,17.0,0,0.00,,,0.00,Weather View 32 v70,2013-05-27 02:37:00,
2013-05-26 19:42:00,67.1,0.0,30.04,SSW,212,9.0,17.0,0,0.00,,,0.00,Weather View 32 v70,2013-05-27 02:42:00,
2013-05-26 19:47:00,66.4,0.0,30.04,SSE,158,5.0,17.0,0,0.00,,,0.00,Weather View 32 v70,2013-05-27 02:47:00,
2013-05-26 19:52:00,66.3,0.0,30.04,SSW,208,9.0,17.0,0,0.00,,,0.00,Weather View 32 v70,2013-05-27 02:52:00,
2013-05-26 19:57:00,66.1,0.0,30.04,SW,235,7.0,17.0,0,0.00,,,0.00,Weather View 32 v70,2013-05-27 02:57:00,
2013-05-26 20:02:00,65.8,0.0,30.04,WSW,240,4.0,17.0,0,0.00,,,0.00,Weather View 32 v70,2013-05-27 03:02:00,
2013-05-26 20:07:00,66.0,0.0,30.04,SW,219,10.0,17.0,0,0.00,,,0.00,Weather View 32 v70,2013-05-27 03:07:00,
2013-05-26 20:12:00,65.1,0.0,30.04,SW,218,8.0,17.0,0,0.00,,,0.00,Weather View 32 v70,2013-05-27 03:12:00,
2013-05-26 20:17:00,65.1,0.0,30.04,West,269,10.0,17.0,0,0.00,,,0.00,Weather View 32 v70,2013-05-27 03:17:00,
2013-05-26 20:22:00,65.0,0.0,30.05,WSW,253,7.0,17.0,0,0.00,,,0.00,Weather View 32 v70,2013-05-27 03:22:00,
2013-05-26 20:28:00,64.7,0.0,30.05,WSW,256,6.0,17.0,0,0.00,,,0.00,Weather View 32 v70,2013-05-27 03:28:00,
2013-05-26 20:33:00,64.7,0.0,30.05,WNW,298,3.0,17.0,0,0.00,,,0.00,Weather View 32 v70,2013-05-27 03:33:00,
2013-05-26 20:38:00,64.5,0.0,30.05,West,262,3.0,17.0,0,0.00,,,0.00,Weather View 32 v70,2013-05-27 03:38:00,
2013-05-26 20:43:00,63.8,0.0,30.06,WSW,243,6.0,17.0,0,0.00,,,0.00,Weather View 32 v70,2013-05-27 03:43:00,
2013-05-26 20:48:00,63.5,0.0,30.06,SW,217,5.0,17.0,0,0.00,,,0.00,Weather View 32 v70,2013-05-27 03:48:00,
2013-05-26 20:53:00,63.4,0.0,30.06,West,266,8.0,17.0,0,0.00,,,0.00,Weather View 32 v70,2013-05-27 03:53:00,
2013-05-26 20:58:00,63.2,0.0,30.06,SW,226,3.0,17.0,0,0.00,,,0.00,Weather View 32 v70,2013-05-27 03:58:00,
2013-05-26 21:01:00,63.3,0.0,30.06,SSW,193,4.0,17.0,0,0.00,,,0.00,Weather View 32 v70,2013-05-27 04:01:00,
2013-05-26 21:06:00,63.1,0.0,30.07,WSW,243,3.0,16.0,0,0.00,,,0.00,Weather View 32 v70,2013-05-27 04:06:00,
2013-05-26 21:11:00,62.3,0.0,30.07,WSW,243,7.0,16.0,0,0.00,,,0.00,Weather View 32 v70,2013-05-27 04:11:00,
2013-05-26 21:16:00,62.5,0.0,30.07,SW,229,6.0,16.0,0,0.00,,,0.00,Weather View 32 v70,2013-05-27 04:16:00,
2013-05-26 21:21:00,62.3,0.0,30.07,West,281,5.0,15.0,0,0.00,,,0.00,Weather View 32 v70,2013-05-27 04:21:00,
2013-05-26 21:26:00,61.8,0.0,30.08,West,262,5.0,15.0,0,0.00,,,0.00,Weather View 32 v70,2013-05-27 04:26:00,
2013-05-26 21:31:00,61.3,0.0,30.08,West,271,7.0,15.0,0,0.00,,,0.00,Weather View 32 v70,2013-05-27 04:31:00,
2013-05-26 21:36:00,61.5,0.0,30.08,WNW,283,4.0,15.0,0,0.00,,,0.00,Weather View 32 v70,2013-05-27 04:36:00,
2013-05-26 21:41:00,61.0,0.0,30.08,SW,226,4.0,15.0,0,0.00,,,0.00,Weather View 32 v70,2013-05-27 04:41:00,
2013-05-26 21:46:00,60.8,0.0,30.09,SW,219,3.0,15.0,0,0.00,,,0.00,Weather View 32 v70,2013-05-27 04:46:00,
2013-05-26 21:51:00,60.4,0.0,30.09,WSW,239,5.0,15.0,0,0.00,,,0.00,Weather View 32 v70,2013-05-27 04:51:00,
2013-05-26 21:56:00,59.9,0.0,30.10,West,264,5.0,15.0,0,0.00,,,0.00,Weather View 32 v70,2013-05-27 04:56:00,
2013-05-26 22:01:00,60.4,0.0,30.10,SW,232,6.0,15.0,0,0.00,,,0.00,Weather View 32 v70,2013-05-27 05:01:00,
2013-05-26 22:06:00,59.8,0.0,30.11,West,273,5.0,14.0,0,0.00,,,0.00,Weather View 32 v70,2013-05-27 05:06:00,
2013-05-26 22:11:00,60.0,0.0,30.11,WSW,253,7.0,13.0,0,0.00,,,0.00,Weather View 32 v70,2013-05-27 05:11:00,
2013-05-26 22:16:00,59.8,0.0,30.12,West,270,1.0,13.0,0,0.00,,,0.00,Weather View 32 v70,2013-05-27 05:16:00,
2013-05-26 22:21:00,59.5,0.0,30.12,WSW,256,5.0,13.0,0,0.00,,,0.00,Weather View 32 v70,2013-05-27 05:21:00,
2013-05-26 22:26:00,59.0,0.0,30.12,SW,219,6.0,13.0,0,0.00,,,0.00,Weather View 32 v70,2013-05-27 05:26:00,
2013-05-26 22:31:00,59.1,0.0,30.12,West,267,4.0,13.0,0,0.00,,,0.00,Weather View 32 v70,2013-05-27 05:31:00,
2013-05-26 22:36:00,58.4,0.0,30.12,SW,228,8.0,12.0,0,0.00,,,0.00,Weather View 32 v70,2013-05-27 05:36:00,
2013-05-26 22:41:00,58.2,0.0,30.12,WNW,294,6.0,12.0,0,0.00,,,0.00,Weather View 32 v70,2013-05-27 05:41:00,
2013-05-26 22:46:00,58.1,0.0,30.13,West,273,5.0,12.0,0,0.00,,,0.00,Weather View 32 v70,2013-05-27 05:46:00,
2013-05-26 22:51:00,58.2,0.0,30.13,West,259,5.0,12.0,0,0.00,,,0.00,Weather View 32 v70,2013-05-27 05:51:00,
2013-05-26 22:56:00,57.8,0.0,30.13,SW,224,5.0,13.0,0,0.00,,,0.00,Weather View 32 v70,2013-05-27 05:56:00,
2013-05-26 23:01:00,57.2,0.0,30.13,WSW,243,6.0,13.0,0,0.00,,,0.00,Weather View 32 v70,2013-05-27 06:01:00,
2013-05-26 23:06:00,57.4,0.0,30.13,WSW,253,4.0,13.0,0,0.00,,,0.00,Weather View 32 v70,2013-05-27 06:06:00,
2013-05-26 23:11:00,57.4,0.0,30.13,WSW,248,6.0,14.0,0,0.00,,,0.00,Weather View 32 v70,2013-05-27 06:11:00,
2013-05-26 23:16:00,57.1,0.0,30.14,WSW,250,6.0,14.0,0,0.00,,,0.00,Weather View 32 v70,2013-05-27 06:16:00,
2013-05-26 23:21:00,56.4,0.0,30.14,SSW,211,6.0,14.0,0,0.00,,,0.00,Weather View 32 v70,2013-05-27 06:21:00,
2013-05-26 23:26:00,56.9,0.0,30.14,WNW,298,7.0,14.0,0,0.00,,,0.00,Weather View 32 v70,2013-05-27 06:26:00,
2013-05-26 23:31:00,56.6,0.0,30.14,SW,222,3.0,14.0,0,0.00,,,0.00,Weather View 32 v70,2013-05-27 06:31:00,
2013-05-26 23:36:00,56.5,0.0,30.14,WSW,239,10.0,14.0,0,0.00,,,0.00,Weather View 32 v70,2013-05-27 06:36:00,
2013-05-26 23:41:00,55.7,0.0,30.14,SW,236,7.0,14.0,0,0.00,,,0.00,Weather View 32 v70,2013-05-27 06:41:00,
2013-05-26 23:46:00,55.6,0.0,30.14,South,186,4.0,14.0,0,0.00,,,0.00,Weather View 32 v70,2013-05-27 06:46:00,
2013-05-26 23:51:00,55.4,0.0,30.14,SSW,194,8.0,14.0,0,0.00,,,0.00,Weather View 32 v70,2013-05-27 06:51:00,
2013-05-26 23:56:00,55.1,0.0,30.14,SW,214,2.0,14.0,0,0.00,,,0.00,Weather View 32 v70,2013-05-27 06:56:00,